sat.trackr.live / text

‹ back to catalog

FLOCK 4Q-31

NORAD 58285 · 2023-174AF

PAYLOAD ACTIVE UNKNOWN

§ Identity

Operator
Country
US
Launch date
2023-11-11
Launch site
AFWTR
Launch vehicle
Mass (kg)
RCS (m²)

Purposes: earth_obs

External: N2YO · Heavens-Above · Gunter

§ Orbital elements

Epoch: 2026-06-17T18:07:09.077952Z

Period
92.43 min
Inclination
97.3918°
Eccentricity
0.0007134
Mean motion
15.57921477 rev/d
Perigee alt
388.8 km
Apogee alt
398.5 km
Semi-major
6,771.8 km
B*
3.7085e-4
RAAN
260.9374°
Arg perigee
148.7169°
Mean anomaly
211.4513°
Rev number
14,587

§ Raw data

FLOCK 4Q-311 58285U 23174AF  26168.75496618  .00027672  00000+0  37085-3 0  99932 58285  97.3918 260.9374 0007134 148.7169 211.4513 15.57921477145879

JSON: /api/v1/satellites/58285 · /tle

For live sub-satellite position, see the globe view (requires WebGL).

§ Visibility from observer

Set your observer location to see the next 7 days of passes ≥ 10°. The values pass through the URL so the page stays shareable.

No JS? Fill the form by hand. The geolocation button needs JavaScript.